Weather Roundup
Issued by NWS

Home | Current Version | Previous Version | Text Only | Print | Product List | Glossary On
Versions: 1 2 3 4 5 6 7 8 9 10 11 12 13 14 15 16 17 18 19 20 21 22 23 24 25 26 27 28 29 30 31 32 33 34 35 36 37 38 39 40 41 42 43 44 45 46 47 48 49 50
000
NZUS93 KARX 310759
HRRWXR

CURRENT HOURLY OBSERVATIONS ACROSS
MUCH OF THE UPPER MISSISSIPPI VALLEY
NATIONAL WEATHER SERVICE LA CROSSE WI
300 AM CDT FRI JUL 31 2015


...SOUTHEAST MINNESOTA...


CITY           SKY/WX    TMP DP  RH WIND       PRES   REMARKS
ROCHESTER      CLEAR     62  59  90 W8        30.07R
ROCHESTER/MAYO FAIR      68  61  78 W8        30.05S
WINONA         CLEAR     66  61  82 CALM      30.02S
AUSTIN         PTCLDY    70  63  78 W7        30.07S
ALBERT LEA     PTCLDY    66  63  88 W3        30.08S
DODGE CENTER   PTCLDY    61  57  88 W6        30.06F
PRESTON        CLEAR     65  60  85 W8        30.07R
OWATONNA       CLEAR     61  57  88 SW3       30.07S
FARIBAULT      CLEAR     64  61  88 SW3       30.05F
$$

...ELSEWHERE IN MINNESOTA...


CITY           SKY/WX    TMP DP  RH WIND       PRES   REMARKS
MINNEAPOLIS    CLEAR     70  60  70 W7        30.02S
INTNL FALLS    CLEAR     57  55  93 W6        29.91R
DULUTH         PTCLDY    63  54  72 W8        29.93S
RED WING       CLEAR     61  59  94 CALM      30.01S
REDWOOD FALLS  CLEAR     66  59  78 W8        30.08S
MANKATO        CLEAR     64  57  77 W7        30.07S
WORTHINGTON    PTCLDY    63  55  77 W5        30.14S
FAIRMONT       CLEAR     64  55  72 CALM      30.10S
$$

...SOUTHWEST WISCONSIN...


CITY           SKY/WX    TMP DP  RH WIND       PRES   REMARKS
LA CROSSE      CLEAR     67  61  81 CALM      30.01S
PRAIRIE DU CHI PTCLDY    62  58  88 E5        30.03S
BOSCOBEL       MOCLDY    60  59  96 CALM      30.03S
LONE ROCK      NOT AVBL
PLATTEVILLE    CLEAR     64  60  88 SW6       30.05F
FORT MC COY    CLEAR     57  55  94 CALM      30.02S
VIROQUA        PTSUNNY   62  60  91 W5        30.04S
WIS DELLS      PTCLDY    66  55  69 SW6       30.01F
$$

...ELSEWHERE IN WISCONSIN...


CITY           SKY/WX    TMP DP  RH WIND       PRES   REMARKS
MILWAUKEE      CLEAR     71  55  56 W7        29.99S
MADISON        PTCLDY    70  57  63 CALM      30.01F
GREEN BAY      CLEAR     67  58  72 W9        29.93S
EAU CLAIRE     NOT AVBL
BLACK RVR FLS  FAIR      59  59 100 CALM      29.99F
MEDFORD        CLEAR     61  57  84 W5        29.98F
WAUSAU         CLEAR     66  57  72 NW9       29.94F
WIS RAPIDS     CLEAR     66  57  72 W7        29.99S
MARSHFIELD     CLEAR     64  56  75 W7        29.98F
RICE LAKE      CLEAR     63  57  80 W5        29.99F
$$

...NORTHEAST IOWA...


CITY           SKY/WX    TMP DP  RH WIND       PRES   REMARKS
DECORAH        MOCLDY    68  64  88 VRB5      30.04S
MASON CITY     CLEAR     68  65  90 W10       30.11R
CHARLES CITY   PTCLDY    66  66 100 W8        30.08R
OELWEIN        CLEAR     66  64  94 SW6       30.08S
$$

...ELSEWHERE IN IOWA...


CITY           SKY/WX    TMP DP  RH WIND       PRES   REMARKS
DES MOINES     PTCLDY    71  64  78 SW5       30.11F
IOWA CITY      CLEAR     68  63  84 W7        30.10S
FORT DODGE     CLEAR     66  61  82 SW3       30.11S
$$

...NORTHERN ILLINOIS...


CITY           SKY/WX    TMP DP  RH WIND       PRES   REMARKS
CHICAGO-OHARE  CLEAR     71  58  63 W7        30.03S
CHICAGO-MIDWAY CLEAR     74  57  55 W7        30.03S
MOLINE         CLEAR     68  64  87 SW3       30.08S
ROCKFORD       CLEAR     65  58  78 S3        30.06S
PEORIA         CLEAR     71  63  75 W5        30.09S
$$

NOTE: "FAIR" INDICATES FEW OR NO CLOUDS BELOW 12,000 FEET WITH NO
SIGNIFICANT WEATHER AND/OR OBSTRUCTIONS TO VISIBILITY. WIND
SPEEDS ARE IN MILES-PER-HOUR.



USA.gov is the U.S. government's official web portal to all federal, state and local government web resources and services.